Home   Weather   Bratislava   Past weeks

Flag for Slovakia Past Weather in Bratislava, Slovakia — Yesterday and Last 2 Weeks

Now
57 °F

Fog.


Feels Like: 57 °F
Forecast: 52 / 67 °F
Wind: 5 mph from Northeast

Location: Bratislava Ivanka

Current Time: Oct 1, 2016 at 9:10:54 AM

Latest Report: Oct 1, 2016 at 8:30 AM


Visibility: N/A

Pressure: 29.98 "Hg

Humidity: 88%

Dew Point: 54 °F

Location of BratislavaLocation

Past Weather in Bratislava — Graph

°F

Bratislava Temperature Yesterday

Maximum temperature yesterday: 77 °F (at 2:30 PM)
Minimum temperature yesterday: 50 °F (at 7:00 AM)
Average temperature yesterday: 63 °F

High & Low Weather Summary for the Past Weeks

 TemperatureHumidityPressure
High81 °F (Sep 16, 3:00 PM)100% (Sep 30, 7:00 AM)30.39 "Hg (Sep 30, 7:00 AM)
Low43 °F (Sep 23, 2:30 AM)37% (Sep 20, 2:30 PM)29.77 "Hg (Sep 17, 5:30 AM)
Average61 °F68%30.09 "Hg
* Reported Sep 16 8:00 AM — Oct 1 8:00 AM, Bratislava, Weather by CustomWeather, © 2016

Note: Actual official high and low records may vary slightly from our data, if they occured in-between our weather recording intervals... More about our weather records

Advertising

Bratislava Weather History for the Previous 24 Hours

Scroll right to see more
 ConditionsComfort  
Time TempWeatherWind HumidityBarometerVisibility
8:00 AM
Sat, Oct 1
55 °FFog.7 mph94%29.98 "HgN/A
7:30 AM54 °FFog.7 mph94%29.98 "HgN/A
7:00 AM52 °FFog.7 mph94%29.95 "HgN/A
6:30 AM52 °FFog.6 mph94%29.95 "HgN/A
6:00 AM52 °FFog.7 mph94%29.98 "HgN/A
5:30 AM52 °FFog.7 mph94%29.95 "HgN/A
5:00 AM54 °FFog.7 mph94%29.98 "HgN/A
4:30 AM54 °FClear.5 mph94%29.98 "Hg10 mi
4:00 AM52 °FClear.6 mph94%29.98 "Hg10 mi
3:30 AM54 °FClear.7 mph94%29.98 "Hg10 mi
3:00 AM54 °FClear.8 mph94%29.98 "Hg10 mi
2:30 AM54 °FClear.7 mph88%29.98 "Hg10 mi
2:00 AM55 °FClear.5 mph88%29.98 "Hg10 mi
1:30 AM55 °FPassing clouds.5 mph82%30.01 "HgN/A
1:00 AM55 °FClear.5 mph88%29.98 "Hg10 mi
12:30 AM55 °FClear.3 mph88%30.01 "Hg10 mi
12:00 AM57 °FClear.3 mph82%30.01 "Hg10 mi
11:30 PM
Fri, Sep 30
59 °FClear.3 mph77%30.01 "Hg10 mi
11:00 PM59 °FClear.3 mph77%30.01 "Hg10 mi
10:30 PM59 °FClear.5 mph77%30.01 "Hg10 mi
10:00 PM61 °FClear.3 mph77%30.01 "Hg10 mi
9:30 PM61 °FClear.2 mph72%30.01 "Hg10 mi
9:00 PM63 °FClear.2 mph73%30.01 "Hg10 mi
8:30 PM64 °FClear.5 mph68%30.01 "Hg10 mi
8:00 PM66 °FClear.3 mph56%30.01 "Hg10 mi
7:30 PM66 °FClear.3 mph56%30.01 "Hg10 mi
7:00 PM70 °FClear.6 mph50%29.98 "Hg10 mi
6:30 PM72 °FSunny.5 mph47%29.98 "Hg10 mi
6:00 PM73 °FSunny.5 mph44%29.98 "Hg10 mi
5:30 PM77 °FPassing clouds.6 mph39%29.98 "HgN/A
5:00 PM77 °FSunny.7 mph39%30.01 "Hg10 mi
4:30 PM77 °FSunny.2 mph39%30.01 "Hg10 mi
4:00 PM77 °FPassing clouds.3 mph39%30.01 "HgN/A
3:30 PM77 °FPassing clouds.7 mph42%30.01 "HgN/A
3:00 PM77 °FPassing clouds.6 mph42%30.04 "HgN/A
2:30 PM77 °FSunny.3 mph44%30.04 "Hg10 mi
2:00 PM75 °FSunny.3 mph47%30.04 "Hg10 mi
1:30 PM73 °FSunny.3 mph50%30.07 "Hg10 mi
1:00 PM73 °FSunny.3 mph50%30.07 "Hg10 mi
12:30 PM72 °FSunny.2 mph53%30.07 "Hg10 mi
12:00 PM70 °FSunny.2 mph57%30.09 "Hg10 mi
11:30 AM68 °FSunny.3 mph60%30.09 "Hg10 mi
11:00 AM66 °FSunny.2 mph64%30.09 "Hg10 mi
10:30 AM64 °FPassing clouds.5 mph68%30.09 "HgN/A
10:00 AM63 °FPassing clouds.5 mph73%30.09 "HgN/A
9:30 AM59 °FSunny.5 mph77%30.09 "Hg10 mi
9:00 AM57 °FPassing clouds.3 mph82%30.07 "HgN/A
Weather by CustomWeather, © 2016

See weather overviewHow to use our weather pages